Weather History for Red Oak, IA

Change the Weather History Date:

Tuesday, November 6, 2012

  Actual Average Record
Temperature  
Mean Temperature 48 °F -  
Max Temperature 59 °F 52 °F 80 °F (1980)
Min Temperature 37 °F 31 °F 9 °F (1959)
Degree Days  
Heating Degree Days 17    
Moisture  
Dew Point 35 °F    
Average Humidity 65    
Maximum Humidity 87    
Minimum Humidity 33    
Precipitation  
Precipitation 0.00 in - - ()
Sea Level Pressure  
Sea Level Pressure 30.00 in    
Wind  
Wind Speed 11 mph (WNW)    
Max Wind Speed 22 mph    
Max Gust Speed 33 mph    
Visibility 9 miles    
Events      
Averages and records for this station are not official NWS values.
T = Trace of Precipitation, MM = Missing Value Source: NWS Daily Summary

Daily Weather History Graph

Daily Weather History Graph

Search for Another Location

Airport:

Trip Planner

Search our weather history database for the weather conditions in past years. The results will help you decide how hot, cold, wet, or windy it might be!

Date:

Astronomy

Nov. 06, 2012 Rise Set
Actual Time 6:58 AM CST 5:10 PM CST
Civil Twilight 6:29 AM CST 5:39 PM CST
Nautical Twilight 5:56 AM CST 6:12 PM CST
Astronomical Twilight 5:24 AM CST 6:44 PM CST
Moon 11:51 PM CST (11/6) 12:50 PM CST (11/6)
Length of Visible Light 11h 09m
Length of Day
10h 11m
Waning Gibbous, 53% of the Moon is Illuminated
Nov 6
Waning Gibbous
Nov 6
Last Quarter
Nov 13
New
Nov 20
First Quarter
Nov 28
Full

Hourly Weather History & Observations

Time (CST) Temp. Windchill Dew Point Humidity Pressure Visibility Wind Dir Wind Speed Gust Speed Precip Events Conditions
12:15 AM 44.6 °F 40.7 °F 39.2 °F 81% 30.06 in 7.0 mi SSW 6.9 mph - N/A   Overcast
12:35 AM 44.6 °F 41.4 °F 37.4 °F 76% 30.06 in 7.0 mi SW 5.8 mph - N/A   Overcast
12:55 AM 44.6 °F 40.2 °F 37.4 °F 76% 30.03 in 7.0 mi South 8.1 mph - N/A   Overcast
1:15 AM 44.6 °F 40.7 °F 37.4 °F 76% 30.03 in 7.0 mi South 6.9 mph - N/A   Overcast
1:35 AM 44.6 °F 40.7 °F 37.4 °F 76% 30.04 in 7.0 mi South 6.9 mph - N/A   Overcast
1:55 AM 44.6 °F 40.2 °F 37.4 °F 76% 30.03 in 7.0 mi SSW 8.1 mph - N/A   Overcast
2:15 AM 44.6 °F 41.4 °F 39.2 °F 81% 30.03 in 5.0 mi South 5.8 mph - N/A   Haze
2:35 AM 44.6 °F 40.2 °F 39.2 °F 81% 30.02 in 5.0 mi South 8.1 mph - N/A   Haze
2:55 AM 42.8 °F 37.0 °F 39.2 °F 87% 30.00 in 5.0 mi South 10.4 mph - N/A   Overcast
3:15 AM 42.8 °F 37.0 °F 39.2 °F 87% 30.00 in 5.0 mi SSW 10.4 mph - N/A   Overcast
3:35 AM 42.8 °F 37.0 °F 39.2 °F 87% 29.99 in 5.0 mi SSW 10.4 mph - N/A   Overcast
3:55 AM 42.8 °F 37.0 °F 39.2 °F 87% 29.97 in 5.0 mi South 10.4 mph - N/A   Overcast
4:15 AM 44.6 °F 40.2 °F 39.2 °F 81% 29.98 in 5.0 mi South 8.1 mph - N/A   Haze
4:35 AM 42.8 °F 36.6 °F 39.2 °F 87% 29.96 in 4.0 mi SSW 11.5 mph - N/A   Overcast
4:55 AM 44.6 °F 39.2 °F 39.2 °F 81% 29.98 in 5.0 mi SSW 10.4 mph - N/A   Haze
5:15 AM 44.6 °F 38.8 °F 39.2 °F 81% 29.95 in 5.0 mi SSW 11.5 mph - N/A   Haze
5:35 AM 44.6 °F 38.4 °F 39.2 °F 81% 29.95 in 5.0 mi SSW 12.7 mph - N/A   Haze
5:55 AM 42.8 °F 36.6 °F 39.2 °F 87% 29.95 in 5.0 mi SW 11.5 mph - N/A   Mostly Cloudy
6:15 AM 42.8 °F 36.2 °F 37.4 °F 81% 29.94 in 5.0 mi SSW 12.7 mph - N/A   Haze
6:35 AM 42.8 °F 37.5 °F 37.4 °F 81% 29.95 in 5.0 mi SW 9.2 mph - N/A   Haze
6:55 AM 42.8 °F 36.6 °F 37.4 °F 81% 29.95 in 7.0 mi SW 11.5 mph - N/A   Overcast
7:15 AM 42.8 °F 37.0 °F 37.4 °F 81% 29.96 in 7.0 mi WSW 10.4 mph - N/A   Overcast
7:35 AM 42.8 °F 38.6 °F 37.4 °F 81% 29.96 in 7.0 mi WSW 6.9 mph - N/A   Overcast
7:55 AM 44.6 °F 39.2 °F 39.2 °F 81% 29.97 in 7.0 mi West 10.4 mph - N/A   Overcast
8:15 AM 44.6 °F 39.2 °F 39.2 °F 81% 29.98 in 7.0 mi West 10.4 mph - N/A   Overcast
8:35 AM 46.4 °F 41.5 °F 41.0 °F 81% 29.98 in 10.0 mi WNW 10.4 mph - N/A   Overcast
8:55 AM 48.2 °F - 41.0 °F 76% 29.99 in 10.0 mi NW 10.4 mph 18.4 mph N/A   Mostly Cloudy
9:15 AM 50.0 °F - 41.0 °F 71% 29.99 in 10.0 mi NW 17.3 mph 21.9 mph N/A   Clear
9:35 AM 51.8 °F - 39.2 °F 62% 29.99 in 10.0 mi NNW 17.3 mph 23.0 mph N/A   Clear
9:55 AM 51.8 °F - 39.2 °F 62% 29.99 in 10.0 mi NNW 19.6 mph 25.3 mph N/A   Clear
10:15 AM 51.8 °F - 39.2 °F 62% 29.99 in 10.0 mi NW 16.1 mph 24.2 mph N/A   Clear
10:35 AM 51.8 °F - 39.2 °F 62% 30.00 in 10.0 mi NW 19.6 mph 27.6 mph N/A   Clear
10:55 AM 53.6 °F - 37.4 °F 54% 30.01 in 10.0 mi NW 16.1 mph 26.5 mph N/A   Clear
11:15 AM 53.6 °F - 37.4 °F 54% 30.00 in 10.0 mi NW 18.4 mph 26.5 mph N/A   Clear
11:35 AM 53.6 °F - 35.6 °F 51% 30.00 in 10.0 mi NW 18.4 mph 26.5 mph N/A   Clear
11:55 AM 55.4 °F - 35.6 °F 47% 29.99 in 10.0 mi NW 17.3 mph 25.3 mph N/A   Clear
12:15 PM 55.4 °F - 35.6 °F 47% 29.98 in 10.0 mi NW 15.0 mph 25.3 mph N/A   Clear
12:35 PM 57.2 °F - 33.8 °F 41% 29.98 in 10.0 mi NW 17.3 mph 25.3 mph N/A   Clear
12:55 PM 57.2 °F - 33.8 °F 41% 29.97 in 10.0 mi NW 17.3 mph 28.8 mph N/A   Clear
1:15 PM 57.2 °F - 32.0 °F 38% 29.97 in 10.0 mi NW 20.7 mph 31.1 mph N/A   Clear
1:35 PM 57.2 °F - 30.2 °F 36% 29.97 in 10.0 mi NW 21.9 mph 27.6 mph N/A   Scattered Clouds
1:55 PM 57.2 °F - 28.4 °F 33% 29.96 in 10.0 mi NW 17.3 mph 28.8 mph N/A   Clear
2:15 PM 57.2 °F - 28.4 °F 33% 29.96 in 10.0 mi NW 20.7 mph 27.6 mph N/A   Clear
2:35 PM 59.0 °F - 30.2 °F 34% 29.96 in 10.0 mi WNW 21.9 mph 33.4 mph N/A   Scattered Clouds
2:55 PM 57.2 °F - 28.4 °F 33% 29.97 in 10.0 mi NW 18.4 mph 27.6 mph N/A   Clear
3:15 PM 57.2 °F - 28.4 °F 33% 29.98 in 10.0 mi NW 20.7 mph 29.9 mph N/A   Clear
3:35 PM 57.2 °F - 30.2 °F 36% 29.98 in 10.0 mi NW 21.9 mph 32.2 mph N/A   Scattered Clouds
3:55 PM 57.2 °F - 30.2 °F 36% 29.98 in 10.0 mi NNW 19.6 mph 29.9 mph N/A   Scattered Clouds
4:15 PM 55.4 °F - 32.0 °F 41% 29.99 in 10.0 mi NW 19.6 mph 25.3 mph N/A   Scattered Clouds
4:35 PM 55.4 °F - 30.2 °F 38% 29.99 in 10.0 mi NNW 13.8 mph 23.0 mph N/A   Clear
4:55 PM 53.6 °F - 32.0 °F 44% 30.00 in 10.0 mi NW 11.5 mph - N/A   Clear
5:15 PM 53.6 °F - 32.0 °F 44% 30.01 in 10.0 mi NW 11.5 mph 19.6 mph N/A   Clear
5:35 PM 51.8 °F - 33.8 °F 50% 30.01 in 10.0 mi NW 8.1 mph - N/A   Scattered Clouds
5:55 PM 51.8 °F - 33.8 °F 50% 30.01 in 10.0 mi NW 8.1 mph - N/A   Scattered Clouds
6:15 PM 48.2 °F - 33.8 °F 58% 30.02 in 10.0 mi NW 6.9 mph - N/A   Clear
6:35 PM 50.0 °F - 33.8 °F 54% 30.03 in 10.0 mi NW 8.1 mph - N/A   Scattered Clouds
6:55 PM 48.2 °F - 33.8 °F 58% 30.03 in 10.0 mi NW 9.2 mph - N/A   Clear
7:15 PM 46.4 °F 42.9 °F 33.8 °F 62% 30.04 in 10.0 mi NNW 6.9 mph - N/A   Clear
7:35 PM 46.4 °F 44.3 °F 33.8 °F 62% 30.04 in 10.0 mi NW 4.6 mph - N/A   Clear
7:55 PM 46.4 °F 43.5 °F 33.8 °F 62% 30.04 in 10.0 mi NW 5.8 mph - N/A   Scattered Clouds
8:15 PM 44.6 °F 41.4 °F 33.8 °F 66% 30.05 in 10.0 mi NW 5.8 mph - N/A   Mostly Cloudy
8:35 PM 44.6 °F 42.2 °F 33.8 °F 66% 30.05 in 10.0 mi NW 4.6 mph - N/A   Scattered Clouds
8:55 PM 44.6 °F 40.7 °F 33.8 °F 66% 30.05 in 10.0 mi NW 6.9 mph - N/A   Clear
9:15 PM 44.6 °F 40.7 °F 33.8 °F 66% 30.06 in 10.0 mi NW 6.9 mph - N/A   Clear
9:35 PM 42.8 °F 39.3 °F 33.8 °F 70% 30.06 in 10.0 mi WNW 5.8 mph - N/A   Clear
9:55 PM 42.8 °F 38.6 °F 33.8 °F 70% 30.05 in 10.0 mi NW 6.9 mph - N/A   Clear
10:15 PM 39.2 °F 35.0 °F 32.0 °F 75% 30.05 in 10.0 mi WNW 5.8 mph - N/A   Clear
10:35 PM 39.2 °F 35.0 °F 32.0 °F 75% 30.05 in 10.0 mi WNW 5.8 mph - N/A   Clear
10:55 PM 39.2 °F 34.2 °F 32.0 °F 75% 30.05 in 10.0 mi WNW 6.9 mph - N/A   Clear
11:15 PM 39.2 °F 34.2 °F 32.0 °F 75% 30.05 in 10.0 mi West 6.9 mph - N/A   Clear
11:35 PM 37.4 °F 31.4 °F 32.0 °F 81% 30.05 in 10.0 mi West 8.1 mph - N/A   Clear
11:55 PM 37.4 °F 32.8 °F 32.0 °F 81% 30.05 in 10.0 mi WNW 5.8 mph - N/A   Clear